Starlink 30342

operational
NORAD ID: 57705 Int'l Des: 2023-129 Owner: SPXS Country: US Constellation: starlink
LEOCIRCULAR

Über Starlink 30342

Beschreibung wird geladen...

Live-Position

3D-Globus wird geladen...

Nächste Überflüge

Höhenverlauf

Altitude vs Time

uPlot chart will show altitude changes over time

Zweizeiliger Elementsatz

1 57705U 23129H 25234.07834418 .01091976 73007-3 10496-2 0 9997
2 57705 42.9964 107.8822 0007149 237.1973 122.8221 16.10932825110828
Epoch: 22. Aug. 2025 • Age: 1683 hours

Aktueller Status

Position data unavailable
Startdatum 27. Aug. 2023
Alter 2.1 years
Typ internet

Technische Details

Klassifizierung Payload
Masse 730.00 kg
Trockenmasse 700.00 kg
Gesamtmasse 730.00 kg
Länge 0.30 m
Durchmesser 4.10 m
Spannweite 29.00 m
Form Box + pan
Hersteller SPXS
Bus-Typ Starlink V2M
Phasenstatus In Orbit
Besitzer/Staat SPXS/US

Große Konstellationen

Loading constellations...